Location: Duac?
(36.9744°N, 30.6500°E)
Time: 07:30:19
(UTC+00:00)

Cosmos 1461 - Pass Details

Date: 05 August 2024
Orbit: 494 x 569 km, 65.0° (Epoch: 10 September)

Event Time Altitude Azimuth Distance (km) Brightness Sun altitude
Rises 18:01:42 0° 332° (NNW) 2,597 7.4 -11.8°
Reaches altitude 10° 18:03:51 10° 334° (NNW) 1,718 6.3 -12.2°
Maximum altitude 18:07:41 72° 60° (ENE) 542 2.6 -12.9°
Enters shadow 18:10:13 21° 141° (SE) 1,209 4.0 -13.3°
